Regional Weather Roundup
Issued by NWS New Orleans/Baton Rouge, LA

Home | Current Version | Previous Version | Text Only | Print | Product List | Glossary On
Versions: 1 2 3 4 5 6 7 8 9 10 11 12 13 14 15 16 17 18 19 20 21 22 23 24 25 26 27 28 29 30 31 32 33 34 35 36 37 38 39 40 41 42 43 44 45 46 47 48 49 50
764
ASUS44 KLIX 231101
RWRLIX
NEW ORLEANS REGIONAL WEATHER ROUNDUP
NATIONAL WEATHER SERVICE NEW ORLEANS LA
600 AM CDT WED JUL 23 2014

NOTE: "FAIR" INDICATES FEW OR NO CLOUDS BELOW 12,000 FEET WITH NO
      SIGNIFICANT WEATHER AND/OR OBSTRUCTIONS TO VISIBILITY.
      SKY/WX - SKY CONDITION AND SIGNIFICANT WEATHER.
      TMP - AIR TEMPERATURE.     DP    - DEWPOINT TEMPERATURE.
      RH  - RELATIVE HUMIDITY.   PRES  - PRESSURE.
      HI  - HEAT INDEX.          WCI   - WIND CHILL INDEX.

*  THESE STATIONS ARE NOT NWS OR FAA STATIONS AND ARE NOT UNDER
   NWS QUALITY CONTROL.

LAZ038-040-048-061>063-065>067-069-231200-
SOUTHEAST LOUISIANA

CITY           SKY/WX    TMP DP  RH WIND       PRES   REMARKS
N.O. AUDUBON     N/A     79  73  82 MISG        N/A
N.O. INTL ARPT MOCLDY    76  73  91 CALM      30.03R
N.O. LAKEFRONT MOCLDY    78  74  87 E8        30.03R
N.O. DOWNTOWN* PTSUNNY   77  70  78 CALM      30.03R
SLIDELL        CLEAR     70  68  93 N6        30.03R
BATON ROUGE    CLEAR     71  68  90 NE5       30.04R
BOOTHVILLE     MOCLDY    80  75  84 S3        30.02S
BELLE CHASSE   MOCLDY    75  72  90 N3        30.02R FOG
BOGALUSA*        N/A     69  66  91 CALM      30.06R
GALLIANO*      NOT AVBL
NEW ROADS*       N/A     71  69  95 E3        30.05R
GONZALES*        N/A     72  72 100 CALM      30.03S
HAMMOND*       CLEAR     70  66  88 CALM      30.05S
HOUMA*         MOCLDY    74  69  82 CALM      30.02R
PORT FOURCHON* PTSUNNY   79  75  89 SW8       30.04R

$$

MSZ070-080>082-231200-
SOUTHERN MISSISSIPPI

CITY           SKY/WX    TMP DP  RH WIND       PRES   REMARKS
MCCOMB         FOG       67  66  97 CALM      30.06R VSB 1/4
GULFPORT       CLEAR     72  68  87 N3        30.02R
BILOXI         CLEAR     70  69  97 N7        30.03R
PASCAGOULA     CLEAR     70  69  97 CALM      30.04R

$$

COASTAL OBSERVATIONS
LAKE AND NEARSHORE STATIONS

STATION/POSITION TIME  TEMP    WIND        PRES    WAVE
                       AIR SEA DIR/SP/G            HT/PER
                 (UTC) (F)     (DEG/KT/KT) (MB)    (FT/S)
PASCAGOULA       1000   75      20/  4/  5 1016.2
WAVELAND YACHT   1000   73      30/  7/  8 1016.0
GRAND ISLE       1000   79 84   CALM  /  1 1016.6
SOUTHWEST PASS   1000   82 85  190/  7/  8 1016.6
NEW CANAL        1000   78 82   CALM  /  4 1016.9
SHELL BEACH      1000   80 81   60/  5/  7 1016.2

OFFSHORE STATIONS

STATION/POSITION TIME  TEMP    WIND        PRES    WAVE
                       AIR SEA DIR/SP/G            HT/PER
                 (UTC) (F)     (DEG/KT/KT) (MB)    (FT/S)
64 S DAUPHIN ISL 1043   82 84  140/ 10/ 12 1016.9

$$




USA.gov is the U.S. government's official web portal to all federal, state and local government web resources and services.